Ely, NV

1:55 AM PDT on September 24, 2017 (GMT -0700)
Ely

Weather History for KELY - June, 2013

Change the Weather History Date:

Sunday, June 23, 2013

  Actual Average Record
Temperature  
Mean Temperature 60 °F 63 °F  
Max Temperature 84 °F 82 °F 96 °F (1954)
Min Temperature 35 °F 43 °F 30 °F (1976)
Degree Days  
Heating Degree Days 5 3  
Month to date heating degree days 89 157  
Since 1 June heating degree days 89 157  
Since 1 July heating degree days 7162 7504  
Cooling Degree Days 0 1  
Month to date cooling degree days 14 11  
Year to date cooling degree days 14 12  
Since 1 June cooling degree days 14 11  
Growing Degree Days 10 (Base 50)    
Moisture  
Dew Point 20 °F    
Average Humidity 25    
Maximum Humidity 40    
Minimum Humidity 9    
Precipitation  
Precipitation 0.00 in 0.02 in 0.25 in (1952)
Month to date precipitation T 0.58  
Year to date precipitation 3.11 5.01  
Snow  
Snow 0.00 in 0.00 in 0.00 in (1893)
Month to date snowfall 0.0 0.1  
Since 1 June snowfall 0.0 0.1  
Since 1 July snowfall 65.0 50.8  
Snow Depth 0.00 in    
Sea Level Pressure  
Sea Level Pressure 29.66 in    
Wind  
Wind Speed 13 mph (South)    
Max Wind Speed 30 mph    
Max Gust Speed 37 mph    
Visibility 10 miles    
Events      
T = Trace of Precipitation, MM = Missing Value Source: NWS Daily Summary

Daily Weather History Graph

Daily Weather History Graph

Search for Another Location

Airport or City:

Trip Planner

Search our weather history database for the weather conditions in past years. The results will help you decide how hot, cold, wet, or windy it might be!

Date:

Astronomy

Jun. 23, 2013 Rise Set
Actual Time 5:13 AM PDT 8:09 PM PDT
Civil Twilight 4:41 AM PDT 8:42 PM PDT
Nautical Twilight 4:00 AM PDT 9:23 PM PDT
Astronomical Twilight 3:12 AM PDT 10:10 PM PDT
Moon 8:26 PM PDT (6/23) 5:35 AM PDT (6/23)
Length of Visible Light 16h 01m
Length of Day
14h 56m
Full, 100% of the Moon is Illuminated
Jun 23
Full
Jun 29
Last Quarter
Jul 8
New
Jul 15
First Quarter
Jul 22
Full

Hourly Weather History & Observations

Time (PDT) Temp. Windchill Dew Point Humidity Pressure Visibility Wind Dir Wind Speed Gust Speed Precip Events Conditions
12:53 AM 45.0 °F 41.2 °F 15.1 °F 30% 29.81 in 10.0 mi South 6.9 mph - N/A   Clear
1:53 AM 43.0 °F 37.2 °F 15.1 °F 32% 29.80 in 10.0 mi SSE 10.4 mph - N/A   Clear
2:53 AM 42.1 °F 34.5 °F 14.0 °F 32% 29.80 in 10.0 mi SSE 15.0 mph - N/A   Clear
3:53 AM 39.0 °F 34.8 °F 14.0 °F 36% 29.81 in 10.0 mi SSW 5.8 mph - N/A   Clear
4:53 AM 37.9 °F 32.1 °F 16.0 °F 41% 29.81 in 10.0 mi South 8.1 mph - N/A   Clear
5:53 AM 37.0 °F 34.5 °F 15.1 °F 41% 29.81 in 10.0 mi South 3.5 mph - N/A   Clear
6:53 AM 46.9 °F - 21.0 °F 36% 29.77 in 10.0 mi South 4.6 mph - N/A   Clear
7:53 AM 59.0 °F - 21.0 °F 23% 29.74 in 10.0 mi ENE 3.5 mph - N/A   Clear
8:53 AM 63.0 °F - 23.0 °F 22% 29.75 in 10.0 mi NNE 4.6 mph - N/A   Clear
9:53 AM 68.0 °F - 23.0 °F 18% 29.73 in 10.0 mi ENE 3.5 mph - N/A   Clear
10:53 AM 73.9 °F - 23.0 °F 15% 29.69 in 10.0 mi NNW 4.6 mph - N/A   Clear
11:53 AM 79.0 °F - 17.1 °F 10% 29.65 in 10.0 mi SSW 20.7 mph 26.5 mph N/A   Clear
12:53 PM 82.0 °F - 18.0 °F 9% 29.63 in 10.0 mi SSW 19.6 mph 26.5 mph N/A   Clear
1:53 PM 82.0 °F - 19.0 °F 10% 29.61 in 10.0 mi SSW 15.0 mph 21.9 mph N/A   Clear
2:53 PM 82.0 °F - 18.0 °F 9% 29.60 in 10.0 mi SSW 23.0 mph 29.9 mph N/A   Clear
3:53 PM 84.0 °F - 19.0 °F 9% 29.57 in 10.0 mi SW 20.7 mph 34.5 mph N/A   Clear
4:53 PM 81.0 °F - 18.0 °F 10% 29.57 in 10.0 mi SSW 18.4 mph 26.5 mph N/A   Clear
5:53 PM 79.0 °F - 19.0 °F 11% 29.58 in 10.0 mi South 15.0 mph 28.8 mph N/A   Clear
6:53 PM 77.0 °F - 19.9 °F 12% 29.55 in 10.0 mi South 20.7 mph 29.9 mph N/A   Clear
7:53 PM 75.0 °F - 21.9 °F 14% 29.51 in 10.0 mi South 21.9 mph 26.5 mph N/A   Clear
8:53 PM 73.0 °F - 25.0 °F 17% 29.52 in 10.0 mi SSW 19.6 mph 23.0 mph N/A   Clear
9:53 PM 72.0 °F - 27.0 °F 19% 29.53 in 10.0 mi SW 23.0 mph 28.8 mph N/A   Scattered Clouds
10:53 PM 68.0 °F - 24.1 °F 19% 29.52 in 10.0 mi SSE 9.2 mph - N/A   Scattered Clouds
11:53 PM 64.0 °F - 24.1 °F 22% 29.51 in 10.0 mi South 9.2 mph - N/A   Clear